GW3006 Weather Reports


time (UTC)temp
C
wind
direction
speed
KPH
gust
KPH
rain 1hr
cm
rain 24hr
cm
rain mn
cm
humidity
%
barometer
mb
20260506103603 12 4 6.4 14.5 0.00 0.00 0.00 81 1007.1
20260506102703 11 353 8.0 19.3 0.00 0.00 0.00 82 1007.0
20260506101803 11 358 8.0 16.1 0.00 0.00 0.00 83 1006.9
20260506100903 11 358 8.0 17.7 0.00 0.00 0.00 84 1007.1
20260506100004 11 1 8.0 16.1 0.00 0.00 0.00 84 1007.0
20260506095403 11 359 6.4 16.1 0.00 0.00 0.00 85 1007.2
20260506094503 10 355 4.8 14.5 0.00 0.00 0.00 86 1007.0
20260506093604 10 13 4.8 12.9 0.00 0.00 0.00 87 1007.1
20260506092704 11 8 6.4 17.7 0.00 0.00 0.00 84 1007.1
20260506091824 11 7 8.0 17.7 0.00 0.00 0.00 84 1006.9
20260506090903 11 353 8.0 19.3 0.00 0.00 0.00 82 1006.9
20260506090024 11 8 6.4 14.5 0.00 0.00 0.00 80 1006.9
20260506085403 11 7 6.4 17.7 0.00 0.00 0.00 80 1006.7
20260506084503 11 357 8.0 16.1 0.00 0.00 0.00 80 1006.8
20260506083603 11 7 6.4 14.5 0.00 0.00 0.00 82 1006.6
20260506082703 11 1 9.7 22.5 0.00 0.00 0.00 82 1006.4
20260506081803 11 360 9.7 17.7 0.00 0.00 0.00 81 1006.7
20260506080903 11 358 8.0 14.5 0.00 0.00 0.00 81 1006.5
20260506072703 11 360 8.0 19.3 0.00 0.00 0.00 82 1006.1
20260506071803 11 355 8.0 17.7 0.00 0.00 0.00 83 1006.3
20260506070903 11 9 8.0 16.1 0.00 0.00 0.00 82 1006.2
20260506061803 10 5 6.4 19.3 0.00 0.00 0.00 84 1006.0
20260506060903 10 2 4.8 11.3 0.00 0.00 0.00 86 1006.1
20260506050903 8 2 3.2 6.4 0.00 0.00 0.00 86 1005.8
20260506044503 8 5 3.2 9.7 0.00 0.00 0.00 87 1005.7
20260506043603 8 12 3.2 6.4 0.00 0.00 0.00 87 1006.1
20260506042704 8 12 1.6 4.8 0.00 0.00 0.00 87 1006.1
20260506041803 8 10 1.6 4.8 0.00 0.00 0.00 86 1006.1
20260506040924 8 11 3.2 4.8 0.00 0.00 0.00 85 1006.1
20260506040003 8 7 3.2 4.8 0.00 0.00 0.00 85 1006.2
20260506035403 8 11 3.2 4.8 0.00 0.00 0.00 85 1006.0
20260506034503 8 10 3.2 9.7 0.00 0.00 0.00 84 1006.0
20260506033603 9 10 3.2 6.4 0.00 0.00 0.00 84 1006.4
20260506032724 9 12 3.2 9.7 0.00 0.00 0.00 84 1006.1
20260506031804 9 9 3.2 6.4 0.00 0.00 0.00 84 1006.1
20260506030903 9 7 3.2 6.4 0.00 0.00 0.00 84 1006.2
20260506030003 9 6 4.8 9.7 0.00 0.00 0.00 84 1006.3
20260506025403 9 7 4.8 11.3 0.00 0.00 0.00 84 1006.3
20260506024503 9 358 4.8 9.7 0.00 0.00 0.00 85 1006.3
20260506023604 9 1 3.2 6.4 0.00 0.00 0.00 85 1006.3
20260506022703 8 10 3.2 9.7 0.00 0.00 0.00 85 1006.1
20260506021803 9 6 3.2 9.7 0.00 0.00 0.00 85 1006.2
20260506020924 9 1 4.8 11.3 0.00 0.00 0.00 85 1006.6
20260506020004 8 14 3.2 9.7 0.00 0.00 0.00 85 1006.3
20260506015403 8 10 3.2 9.7 0.00 0.00 0.00 85 1006.3
20260506014524 9 9 6.4 11.3 0.00 0.00 0.00 86 1006.3
20260506013603 8 12 4.8 11.3 0.00 0.00 0.00 86 1006.5
20260506012724 8 10 3.2 11.3 0.00 0.00 0.00 87 1006.3
20260506011803 8 14 3.2 9.7 0.00 0.00 0.00 87 1006.4
20260506010904 8 14 3.2 6.4 0.00 0.00 0.00 87 1006.6
20260506010004 9 8 4.8 9.7 0.00 0.00 0.00 87 1006.7
20260506005424 9 7 4.8 11.3 0.00 0.00 0.00 86 1006.5
20260506004503 9 13 3.2 9.7 0.00 0.00 0.00 86 1006.7
20260506003603 9 5 4.8 9.7 0.00 0.00 0.00 86 1006.6
20260506002703 9 5 4.8 11.3 0.00 0.00 0.00 85 1006.8
20260506001824 9 7 3.2 9.7 0.00 0.00 0.00 85 1006.6
20260506000904 10 10 4.8 12.9 0.00 0.00 0.00 84 1006.9
20260506000005 10 16 4.8 12.9 0.00 0.00 0.00 84 1006.7
20260505235403 10 8 3.2 11.3 0.00 0.00 0.00 85 1007.2
20260505234503 10 8 4.8 12.9 0.00 0.00 0.00 85 1007.0
20260505233604 10 8 4.8 14.5 0.00 0.00 0.00 85 1006.8
20260505232703 10 5 4.8 14.5 0.00 0.00 0.00 85 1006.9
20260505231803 10 10 4.8 12.9 0.00 0.00 0.00 86 1007.1
20260505230903 10 6 4.8 11.3 0.00 0.00 0.00 86 1006.9
20260505230003 10 13 4.8 11.3 0.00 0.00 0.00 87 1006.7
20260505225426 10 5 3.2 6.4 0.00 0.00 0.00 87 1007.0
20260505224503 10 360 3.2 6.4 0.00 0.00 0.00 87 1007.1
20260505223603 10 11 3.2 9.7 0.00 0.00 0.00 87 1007.1
20260505222704 10 4 3.2 6.4 0.00 0.00 0.00 87 1007.0
20260505221803 10 14 3.2 9.7 0.00 0.00 0.00 87 1006.9
20260505220903 10 5 4.8 9.7 0.00 0.00 0.00 86 1007.1
20260505220024 10 4 4.8 12.9 0.00 0.00 0.00 86 1007.1
20260505215424 10 3 4.8 12.9 0.00 0.00 0.00 86 1007.0
20260505214503 10 5 4.8 9.7 0.00 0.00 0.00 86 1007.0
20260505213604 10 1 4.8 11.3 0.00 0.00 0.00 86 1007.0
20260505212725 10 359 4.8 11.3 0.00 0.00 0.00 86 1007.3
20260505211803 10 3 4.8 11.3 0.00 0.00 0.00 85 1007.0
20260505210903 10 11 3.2 9.7 0.00 0.00 0.00 85 1006.6
20260505210003 10 1 4.8 12.9 0.00 0.00 0.00 85 1007.0
20260505205424 10 10 4.8 12.9 0.00 0.00 0.00 85 1007.4
20260505204504 10 2 4.8 12.9 0.00 0.00 0.00 85 1006.9
20260505203604 10 360 6.4 14.5 0.00 0.00 0.00 85 1007.0
20260505202725 11 356 4.8 12.9 0.00 0.00 0.00 85 1007.0
20260505201803 11 3 6.4 17.7 0.00 0.00 0.00 85 1006.9
20260505200903 11 6 6.4 17.7 0.00 0.00 0.00 85 1006.8
20260505200003 11 3 6.4 12.9 0.00 0.00 0.00 85 1006.8
20260505195404 11 8 4.8 11.3 0.00 0.00 0.00 85 1006.8
20260505194503 11 16 4.8 12.9 0.00 0.00 0.00 85 1006.8
20260505193603 11 2 6.4 12.9 0.00 0.00 0.00 84 1006.8
20260505192703 11 3 6.4 12.9 0.00 0.00 0.00 84 1006.6
20260505191824 11 355 6.4 11.3 0.00 0.00 0.00 83 1006.4
20260505190903 11 9 6.4 14.5 0.00 0.00 0.00 83 1006.5
20260505190003 11 8 6.4 12.9 0.00 0.00 0.00 83 1006.5
20260505185403 11 2 8.0 14.5 0.00 0.00 0.00 82 1006.6
20260505184505 11 358 6.4 12.9 0.00 0.00 0.00 82 1006.4
20260505183603 12 357 6.4 14.5 0.00 0.00 0.00 82 1006.6
20260505182703 12 6 6.4 17.7 0.00 0.00 0.00 81 1006.5
20260505181804 12 5 6.4 17.7 0.00 0.00 0.00 80 1006.3
20260505180903 12 8 6.4 14.5 0.00 0.00 0.00 79 1006.5
20260505180003 12 7 8.0 22.5 0.00 0.00 0.00 79 1006.4
20260505175403 12 4 8.0 19.3 0.00 0.00 0.00 78 1006.3
20260505174503 13 358 6.4 16.1 0.00 0.00 0.00 78 1006.3
20260505173604 13 3 6.4 17.7 0.00 0.00 0.00 77 1006.2
20260505172724 13 3 8.0 22.5 0.00 0.00 0.00 77 1006.4
20260505171804 13 354 4.8 14.5 0.00 0.00 0.00 77 1006.3
20260505170903 13 7 8.0 17.7 0.00 0.00 0.00 76 1006.4
20260505170003 13 3 6.4 17.7 0.00 0.00 0.00 75 1006.3
20260505165403 13 8 6.4 17.7 0.00 0.00 0.00 74 1006.2
20260505164503 14 359 9.7 17.7 0.00 0.00 0.00 73 1006.1
20260505163603 14 355 6.4 17.7 0.00 0.00 0.00 73 1006.3
20260505162703 14 359 8.0 16.1 0.00 0.00 0.00 73 1005.8
20260505161824 15 2 8.0 17.7 0.00 0.00 0.00 72 1006.0
20260505160903 15 5 9.7 19.3 0.00 0.00 0.00 72 1006.2
20260505152724 15 359 6.4 17.7 0.00 0.00 0.00 74 1006.3
20260505151803 15 348 6.4 19.3 0.00 0.00 0.00 74 1006.4
20260505150903 14 1 9.7 16.1 0.00 0.00 0.00 76 1006.3
20260505124524 15 18 1.6 9.7 0.00 0.00 0.00 76 1007.4
20260505123603 15 352 3.2 6.4 0.00 0.00 0.00 76 1007.2
20260505122724 15 355 3.2 11.3 0.00 0.00 0.00 75 1007.1
20260505121803 15 360 1.6 11.3 0.00 0.00 0.00 76 1007.3
20260505120903 15 5 1.6 9.7 0.00 0.00 0.00 77 1007.2
20260505120003 15 360 1.6 9.7 0.00 0.00 0.00 77 1007.1
20260505115403 15 359 3.2 11.3 0.00 0.00 0.00 76 1007.1
20260505114524 15 10 1.6 6.4 0.00 0.00 0.00 76 1007.2
20260505113604 14 6 3.2 12.9 0.00 0.00 0.00 78 1007.4
20260505112704 15 8 3.2 11.3 0.00 0.00 0.00 77 1007.1
20260505111803 15 1 3.2 12.9 0.00 0.00 0.00 76 1007.4
20260505110903 15 6 4.8 11.3 0.00 0.00 0.00 74 1007.4